User: anonymous   Login
Location: Centerville
(32.8776°N, 96.6203°W)
Time: 06:14:55
(UTC+00:00)
Language:

SJ-6B - Orbit

View from above orbital plane
View from above orbital plane
View from above satellite
View from above satellite

Ground track
Ground track

The orbit data is extracted from the following two-line orbital elements,

1 28415U 04035C   21260.38568149  .00000542  00000-0  39280-4 0  9994
2 28415  97.5573 301.3342 0049952 232.2155 127.4544 15.07213016932459
Epoch (UTC): 17 September 2021 09:15:22
Eccentricity: 0.0049952
inclination: 97.5573°
perigee height: 510 km
apogee height: 579 km
right ascension of ascending node: 301.3342°
argument of perigee: 232.2155°
revolutions per day: 15.07213016
mean anomaly at epoch: 127.4544°
orbit number at epoch: 93245

The dashed part of the orbit path shows where the satellite is in the earth's shadow,  

DLR